User: anonymous   Login
Location: Unspecified
(0.0000°N, 0.0000°E)
Time: 01:50:45
(UTC+00:00)
Language:

Kosmos-1464 - Orbit

View from above orbital plane
View from above orbital plane
View from above satellite
View from above satellite

Ground track
Ground track

The orbit data is extracted from the following two-line orbital elements,

1 14084U 83048A   18017.23741763  .00000023  00000-0  80605-5 0  9999
2 14084  82.9474 318.9339 0029222 317.8382 150.0109 13.74438776738002
Epoch (UTC): 17 January 2018 05:41:52
Eccentricity: 0.0029222
inclination: 82.9474°
perigee height: 962 km
apogee height: 1005 km
right ascension of ascending node: 318.9339°
argument of perigee: 317.8382°
revolutions per day: 13.74438776
mean anomaly at epoch: 150.0109°
orbit number at epoch: 73800

The dashed part of the orbit path shows where the satellite is in the earth's shadow,  

DLR